Aérodrome :
LOGIN :

S'inscrire | Disclaimer

   EN    FR    IT 

 










Légende :    VFR   VFR Marginal   IFR   IFR Intensif   IFR Très Intensif
Visi : 
Plafond : 
>= 8 km
>= 3000ft
5 à 8 km
1000 à 3000 ft
1500m à 5 km
500 à 1000 ft
800 à 1500m
200 à 500 ft
< 800m
< 200 ft
Symboles :   Orages  Brouillard  Fortes neiges  Fortes précipitations  Vent > 20 kt
SIGMETs :   Divers  Orages  Givrage  Turbulence  Onde Orograph.  Cendres Volcan.







- Altitude de l'aérodrome : 75 ft
- Code IATA : YEO


EGDY - RNAS Yeovilton

DERNIER METAR :
  • 251450Z 35007KT 9999 FEW040 BKN200 13/M00 Q1033 BLU NOSIG

METARs EXPIRÉS :
  • 251350Z 01006KT 9999 FEW040 SCT200 12/03 Q1033 BLU NOSIG
  • 251250Z 03008KT 9999 FEW035 SCT200 12/02 Q1034 BLU NOSIG

TAF TAF EGDY
Valide du 25 à 15h jusqu'au 26 à 00h UTC


251330Z 2515/2524 36010KT 9999 FEW040
BECMG 2520/2522 VRB04KT
Pas de NOTAMs connus pour ce terrain.



MET'MAP, la Météo Aéronautique d'un coup d'oeil ! - Copyright ORBIFLY Décembre 2007 - Disclaimer

ORBIFLY MET'MAP TEAM :

Programmation & Développement : Alexandra Zaïnal
Conception & Développement : Baudouin d'Aumeries
Co-Programmation & Développement : Marc-Olivier Méhu
Soutien technique & logistique : Manuel Goepfert

Contact : metmap@orbifly.com




SOURCES & CREDITS :

   NOAA